Le nostre stazioni meteo in Italia

Pubblicità
Il mio iltempo24.it
Sciacca, Italia (16436): Temperatura & dewpoint: 13.06.2019 01:00:00 - 19.06.2019 01:00:00 (CEST)Sciacca, Italia (16436): velocità del vento: 13.06.2019 01:00:00 - 19.06.2019 01:00:00 (CEST)Sciacca, Italia (16436): direzione del vento: 13.06.2019 01:00:00 - 19.06.2019 01:00:00 (CEST)Sciacca, Italia (16436): reduced air pressure: 13.06.2019 01:00:00 - 19.06.2019 01:00:00 (CEST)
Data & Tempo tt [°C] td [°C] ff [km/h] ff [kn] dd ppp [hPa]
19.06.2019 01:00:00 19,5 18,1 0 0 N 1024,6
19.06.2019 00:00:00 20,4 19,0 0 0 N 1024,5
18.06.2019 23:00:00 20,8 19,0 0 0 N 1024,1
18.06.2019 22:00:00 22,5 20,2 0 0 N 1023,5
18.06.2019 21:00:00 24,1 19,7 0 0 N 1022,5
18.06.2019 20:00:00 27,6 17,1 2 1 NO 1022,1
18.06.2019 19:00:00 25,8 21,0 - - - 1022,1
18.06.2019 18:00:00 28,3 14,1 - - - 1021,9
18.06.2019 17:00:00 27,4 15,7 8 4 SO 1022,6
18.06.2019 16:00:00 27,4 15,4 11 6 SO 1022,8
18.06.2019 15:00:00 26,7 16,3 11 6 SO 1023,2
18.06.2019 14:00:00 27,1 18,6 9 5 OSO 1023,4
18.06.2019 13:00:00 27,1 13,7 8 4 SSO 1023,5
18.06.2019 12:00:00 26,4 15,1 9 5 SO 1023,6
18.06.2019 11:00:00 25,8 17,1 9 5 OSO 1023,6
18.06.2019 10:00:00 25,4 15,3 4 2 SO 1023,1
18.06.2019 09:00:00 25,7 15,9 0 0 N 1023,2
18.06.2019 08:00:00 22,9 17,5 0 0 N 1023,6
18.06.2019 07:00:00 19,8 15,2 0 0 N 1023,7
18.06.2019 06:00:00 19,9 14,6 0 0 N 1023,1
18.06.2019 05:00:00 19,6 11,6 0 0 N 1022,5
18.06.2019 04:00:00 20,8 12,4 0 0 N 1022,7
18.06.2019 03:00:00 20,3 12,0 0 0 N 1023,1
18.06.2019 02:00:00 21,3 12,9 0 0 N 1023,3
18.06.2019 01:00:00 21,1 14,2 0 0 N 1023,5
18.06.2019 00:00:00 21,4 14,5 0 0 N 1023,2
17.06.2019 23:00:00 22,3 12,8 0 0 N 1022,4
17.06.2019 22:00:00 23,1 12,4 0 0 N 1021,8
17.06.2019 21:00:00 24,0 12,3 2 1 NNE 1021,4
17.06.2019 20:00:00 26,0 14,1 0 0 N 1021,2
17.06.2019 19:00:00 26,7 15,0 2 1 SE 1020,9
17.06.2019 18:00:00 - - - - - -
17.06.2019 17:00:00 27,9 14,1 4 2 SSO 1021,8
17.06.2019 16:00:00 26,8 14,1 9 5 OSO 1022,1
17.06.2019 15:00:00 27,4 14,7 9 5 SO 1022,4
17.06.2019 14:00:00 28,8 15,6 5 3 S 1022,1
17.06.2019 13:00:00 29,1 10,7 8 4 S 1022,3
17.06.2019 12:00:00 29,8 9,9 8 4 SSE 1022,5
17.06.2019 11:00:00 29,3 10,4 - - - 1022,6
17.06.2019 10:00:00 28,5 12,8 4 2 SE 1023,1
17.06.2019 09:00:00 26,4 14,1 0 0 N 1022,8
17.06.2019 08:00:00 22,1 16,3 0 0 N 1022,9
17.06.2019 07:00:00 21,6 16,0 0 0 N 1022,8
17.06.2019 06:00:00 20,3 12,2 0 0 N 1023,1
17.06.2019 05:00:00 21,0 11,8 4 2 NE 1022,8
17.06.2019 04:00:00 21,8 12,0 0 0 N 1022,5
17.06.2019 03:00:00 21,7 11,9 8 4 NE 1022,5
17.06.2019 02:00:00 19,8 15,4 4 2 NE 1023,2
17.06.2019 01:00:00 - - - - - -
17.06.2019 00:00:00 - - - - - -
16.06.2019 23:00:00 20,7 16,9 0 0 N 1023,5
16.06.2019 22:00:00 - - - - - -
16.06.2019 21:00:00 - - - - - -
16.06.2019 20:00:00 24,2 19,4 0 0 N 1021,8
16.06.2019 19:00:00 - - - - - -
16.06.2019 18:00:00 33,7 8,5 13 7 NNE 1020,3
16.06.2019 17:00:00 35,1 8,9 11 6 NNE 1020,3
16.06.2019 16:00:00 34,5 11,1 5 3 SSO 1020,7
16.06.2019 15:00:00 33,5 12,0 5 3 SSO 1021,1
16.06.2019 14:00:00 31,7 14,4 8 4 SSO 1021,8
16.06.2019 13:00:00 31,1 12,9 11 6 OSO 1022,5
16.06.2019 12:00:00 30,1 14,2 5 3 SO 1022,8
16.06.2019 11:00:00 29,2 16,7 5 3 E 1022,9
16.06.2019 10:00:00 28,0 14,6 2 1 OSO 1023,2
16.06.2019 09:00:00 26,9 16,2 0 0 N 1023,7
16.06.2019 08:00:00 24,5 18,1 5 3 SO 1023,6
16.06.2019 07:00:00 21,6 16,3 0 0 N 1023,3
16.06.2019 06:00:00 22,8 16,0 0 0 N 1023,1
16.06.2019 05:00:00 22,7 12,6 0 0 N 1022,8
16.06.2019 04:00:00 24,3 13,1 0 0 N 1022,8
16.06.2019 03:00:00 25,4 8,8 4 2 NNE 1022,6
16.06.2019 02:00:00 27,7 9,0 9 5 NNO 1023,0
16.06.2019 01:00:00 27,8 9,6 8 4 NNO 1023,5
16.06.2019 00:00:00 25,7 15,6 0 0 N 1024,0
15.06.2019 23:00:00 26,0 17,0 0 0 N 1023,5
15.06.2019 22:00:00 28,1 13,9 2 1 NE 1022,9
15.06.2019 21:00:00 29,5 17,0 - - - 1022,2
15.06.2019 20:00:00 30,9 13,2 16 9 NO 1022,2
15.06.2019 19:00:00 31,9 12,7 13 7 NNO 1022,1
15.06.2019 18:00:00 31,5 16,6 15 8 NO 1022,3
15.06.2019 17:00:00 30,4 17,4 15 8 ONO 1023,0
15.06.2019 16:00:00 28,4 17,5 28 15 NO 1023,7
15.06.2019 15:00:00 30,3 18,0 22 12 O 1024,0
15.06.2019 14:00:00 31,6 19,2 18 10 ONO 1023,2
15.06.2019 13:00:00 27,9 21,6 13 7 S 1024,4
15.06.2019 12:00:00 28,1 21,6 9 5 SSO 1024,7
15.06.2019 11:00:00 26,4 20,2 8 4 SO 1025,1
15.06.2019 10:00:00 26,8 21,9 2 1 SSO 1024,9
15.06.2019 09:00:00 24,8 20,6 0 0 N 1025,4
15.06.2019 08:00:00 24,1 18,9 4 2 NE 1025,4
15.06.2019 07:00:00 22,1 18,6 9 5 NNE 1025,4
15.06.2019 06:00:00 22,6 16,1 4 2 ENE 1024,9
15.06.2019 05:00:00 23,7 17,8 15 8 NO 1024,9
15.06.2019 04:00:00 24,2 17,4 0 0 N 1025,3
15.06.2019 03:00:00 24,5 18,8 16 9 OSO 1025,6
15.06.2019 02:00:00 25,1 15,4 4 2 ENE 1025,9
15.06.2019 01:00:00 - - - - - -
15.06.2019 00:00:00 - - - - - -
14.06.2019 23:00:00 26,0 15,3 9 5 NE 1025,9
14.06.2019 22:00:00 - - - - - -
14.06.2019 21:00:00 - - - - - -
14.06.2019 20:00:00 25,0 20,0 22 12 O 1027,7
14.06.2019 19:00:00 - - - - - -
14.06.2019 18:00:00 28,2 17,4 0 0 N 1024,8
14.06.2019 17:00:00 27,9 13,7 4 2 SO 1025,2
14.06.2019 16:00:00 29,9 13,6 - - - 1024,9
14.06.2019 15:00:00 28,8 16,3 - - - 1025,1
14.06.2019 14:00:00 28,2 15,1 - - - 1025,2
14.06.2019 13:00:00 30,4 10,9 - - - 1024,9
14.06.2019 12:00:00 30,2 11,2 5 3 S 1024,8
14.06.2019 11:00:00 30,6 11,1 0 0 N 1025,4
14.06.2019 10:00:00 29,1 10,7 0 0 N 1025,8
14.06.2019 09:00:00 26,7 12,7 0 0 N 1025,7
14.06.2019 08:00:00 27,3 16,2 5 3 NE 1025,3
14.06.2019 07:00:00 24,1 14,1 8 4 NNE 1025,3
14.06.2019 06:00:00 23,3 11,0 0 0 N 1025,2
14.06.2019 05:00:00 23,0 10,4 0 0 N 1024,6
14.06.2019 04:00:00 24,3 10,2 0 0 N 1024,3
14.06.2019 03:00:00 26,1 8,6 9 5 NE 1024,4
14.06.2019 02:00:00 25,8 8,7 9 5 NNE 1024,5
14.06.2019 01:00:00 23,6 16,8 13 7 NNE 1025,0
14.06.2019 00:00:00 21,7 18,0 2 1 NNE 1025,9
13.06.2019 23:00:00 20,8 18,7 0 0 N 1025,9
13.06.2019 22:00:00 21,8 18,9 0 0 N 1025,2
13.06.2019 21:00:00 23,4 18,9 4 2 OSO 1023,6
13.06.2019 20:00:00 27,2 21,7 0 0 N 1021,7
13.06.2019 19:00:00 26,8 22,4 0 0 N 1021,6
13.06.2019 18:00:00 26,8 21,3 - - - 1022,1
13.06.2019 17:00:00 28,8 21,0 - - - 1022,4
13.06.2019 16:00:00 27,9 21,1 9 5 SO 1022,7
13.06.2019 15:00:00 28,5 17,3 9 5 NO 1023,0
13.06.2019 14:00:00 28,9 14,3 - - - 1023,1
13.06.2019 13:00:00 28,8 15,6 4 2 SO 1023,1
13.06.2019 12:00:00 29,2 16,0 4 2 SSO 1023,1
13.06.2019 11:00:00 29,1 15,9 2 1 SO 1022,9
13.06.2019 10:00:00 27,5 19,8 0 0 N 1023,1
13.06.2019 09:00:00 26,0 21,2 2 1 S 1023,4
13.06.2019 08:00:00 23,3 21,9 2 1 NE 1023,6
13.06.2019 07:00:00 19,6 18,4 2 1 SSE 1023,7
13.06.2019 06:00:00 18,2 17,2 5 3 NE 1023,5
13.06.2019 05:00:00 18,4 17,5 4 2 NE 1023,3
13.06.2019 04:00:00 18,4 17,4 2 1 ONO 1023,4
13.06.2019 03:00:00 19,0 17,8 5 3 NE 1023,3
13.06.2019 02:00:00 20,6 19,2 4 2 SO 1023,5
13.06.2019 01:00:00 - - - - - -

tt = Temperatura
td = dewpoint
ff = velocità del vento
dd = direzione del vento
ppp = reduced air pressure

Stazioni seguenti

WeatherPro
AMSI
MeteoEarth